464  
ASUS45 KREV 150410  
RWRNV  
NEVADA REGIONAL WEATHER ROUNDUP  
NATIONAL WEATHER SERVICE RENO NV  
900 PM PDT TUE AUG 14 2018  
 
NOTE: "FAIR" INDICATES FEW OR NO CLOUDS BELOW 12,000 FEET WITH NO  
SIGNIFICANT WEATHER AND/OR S TO VISIBILITY
.  
 
NVZ001-003-004-150500-  
WESTERN NEVADA  
 
CITY SKY/WX TMP DP RH WIND PRES REMARKS
 
RENO CLOUDY 81 43 26 S10 30.01R  
CARSON CITY FAIR 73 52 46 CALM 30.07R  
MINDEN FAIR 68 48 49 SE3 30.07S  
SLIDE MTN N/A 59 39 47 NE5 N/A  
FALLON CLOUDY 83 46 27 S9 29.98S  
LOVELOCK CLOUDY 84 42 22 S24G31 29.94R  

 
 
NVZ002-CAZ072-073-150500-  
NORTHERN AND CENTRAL SIERRA  
 
CITY SKY/WX TMP DP RH WIND PRES REMARKS
 
S. LAKE TAHOE MOCLDY 63 49 60 CALM 30.17R  
TRUCKEE CLOUDY 61 55 82 S3 30.14S  
SQUAW VLY 8000 N/A 63 37 39 N2 N/A  
BLUE CANYON PTCLDY 69 37 30 CALM 30.11S  
MAMMOTH LAKES FAIR 65 40 39 W13 30.26R  
BRIDGEPORT FAIR 59 42 53 VRB3 30.21R  

 
 
NVZ030-031-036-150500-  
NORTHERN NEVADA  
 
CITY SKY/WX TMP DP RH WIND PRES REMARKS
 
ELKO MOCLDY 79 42 26 W7 30.03S  
WINNEMUCCA MOCLDY 78 31 17 S9 29.95R  
WENDOVER PTCLDY 84 36 18 NW12 29.96R  

 
 
NVZ035-037-150500-  
CENTRAL NEVADA  
 
CITY SKY/WX TMP DP RH WIND PRES REMARKS
 
ELY MOCLDY 69 45 41 SE10 30.18R  
EUREKA N/A 67 39 35 SW7 30.12R  

 
 
NVZ013-014-150500-  
SOUTH CENTRAL NEVADA  
 
CITY SKY/WX TMP DP RH WIND PRES REMARKS
 
TONOPAH MOCLDY 76 45 33 NW21G32 30.10R  

 
 
NVZ017-020-022-150500-  
SOUTHERN NEVADA  
 
CITY SKY/WX TMP DP RH WIND PRES REMARKS
 
LAS VEGAS PTCLDY 99 46 16 S6 29.78R  
N. LAS VEGAS CLEAR 99 44 15 SW7 29.77R  
NELLIS AFB CLEAR 98 50 19 SE10 29.75R  
HENDERSON CLEAR 94 49 21 SW7 29.84R  
MERCURY CLEAR 90 42 18 SW6 29.88R  

 
 
 
CLICK HERE TO GO TO PREVIOUS BULLETINS.

The Nexlab NV Page Main Text Page